AirNav   Air Wisconsin pilot careers
 
 805 users online  

99A Smith's International Airport
Sherrill, Arkansas, USA

GOING TO SHERRILL?


FAA INFORMATION EFFECTIVE 24 MAY 2018

Location

FAA Identifier: 99A
Lat/Long: 34-24-22.4000N / 091-57-31.5000W
34-24.373333N / 091-57.525000W
34.4062222 / -91.9587500
(estimated)
Elevation: 218 ft. / 66 m (estimated)
Variation: 03E (1990)
From city: 1 mile NW of SHERRILL, AR
Time zone: UTC -5 (UTC -6 during Standard Time)
Zip code: 72152

Airport Operations

Airport use: Open to the public
Activation date: 12/1991
Control tower: no
ARTCC: MEMPHIS CENTER
FSS: JONESBORO FLIGHT SERVICE STATION
NOTAMs facility: JBR (NOTAM-D service available)
Attendance: UNATNDD
Wind indicator: yes
Segmented circle: no

Airport Communications

CTAF: 122.9
WX ASOS at PBF (14 nm S): 120.775 (870-536-0228)

Nearby radio navigation aids

VOR radial/distance  VOR name  Freq  Var
PBFr346/9.7PINE BLUFF VOR/DME116.0004E
LITr141/19.6LITTLE ROCK VORTAC113.9005E

 
NDB name  Hdg/Dist  Freq  Var  ID
TONEYVILLE174/32.929001ETYV - -.-- ...-

Airport Services

Runway Information

Runway 17/35

Dimensions: 3800 x 75 ft. / 1158 x 23 m
Surface: turf, in good condition
RUNWAY 17  RUNWAY 35
Latitude: 34-24.685667N34-24.059333N
Longitude: 091-57.525000W091-57.525000W
Traffic pattern: leftright
Obstructions: 15 ft. road50 ft. trees

Airport Ownership and Management from official FAA records

Ownership: Privately-owned
Owner: WILLIE C. SMITH
9010 N. HWY 15
SHERRILL, AR 72152-8981
Phone 870-773-4479
Manager: BEVERLY A. SMITH
9010 N. HWY 15
SHERRILL, AR 72152
Phone (870) 766-4619

Airport Operational Statistics

Aircraft based on the field: 7
Single engine airplanes: 6
Multi engine airplanes: 1
    
Aircraft operations: 200/year *
50% transient general aviation
50% local general aviation
* for 12-month period ending 31 August 2016

Instrument Procedures

There are no published instrument procedures at 99A.

Some nearby airports with instrument procedures:

KPBF - Pine Bluff Regional Airport Grider Field (14 nm S)
9M8 - Sheridan Municipal Airport (20 nm W)
KSGT - Stuttgart Municipal Airport / Carl Humphrey Field (22 nm NE)
KLIT - Bill and Hillary Clinton National Airport/Adams Field (23 nm NW)
M73 - Almyra Municipal Airport (24 nm E)
 
Loc | Ops | Rwys | IFR | FBO | Links
Com | Nav | Svcs | Stats | Notes

AirNav Hotels Sweepstakes
 
Area around 99A (Smith's International Airport)
 
Road maps at: MapQuest Bing Google
 
Aerial photo
WARNING: Photo may not be current or correct
Aerial photo of 99A (Smith's International Airport)
Photo courtesy of the Arkansas Department of Aeronautics
Taken in the Spring of 2007

Do you have a better or more recent aerial photo of Smith's International Airport that you would like to share? If so, please send us your photo.

 
Sectional chart

 
Airport distance calculator
Flying to Smith's International Airport? Find the distance to fly.

From to 99A

Sunrise and sunset
Times for 24-May-2018
 Local
(UTC-5)
 Zulu
(UTC)
Morning civil twilight05:3210:32
Sunrise06:0111:01
Sunset20:0901:09
Evening civil twilight20:3701:37

Current date and time
Zulu (UTC)  25-May-2018 03:03:48
Local (UTC-5)  24-May-2018 22:03:48
 
METAR
KPBF 
13nm S 
250253Z AUTO 00000KT 10SM CLR 24/23 A3003 RMK AO2 LTG DSNT S AND W RAE0157 SLP167 P0000 60000 T02440228 53010
KSGT 
23nm NE 
250256Z AUTO 12006KT 10SM CLR 26/22 A3004 RMK AO2 SLP170 T02560217 53010
KLIT 
24nm NW 
250253Z 00000KT 10SM FEW050 SCT200 25/22 A3003 RMK AO2 LTG DSNT S AND SW SLP168 OCNL LTGIC DSNT SW CB DSNT SW MOV N T02500222 53009
TAF
KPBF 
13nm S 
241730Z 2418/2518 00000KT P6SM SCT025 FM242100 04003KT P6SM VCTS SCT040CB BKN250 FM250100 VRB03KT P6SM BKN250 TEMPO 2510/2512 4SM BR BKN020
NOTAMs
Click for the latest NOTAMs
NOTAMs are issued by the DoD/FAA and will open in a separate window not controlled by AirNav.

 

 
 

Would you like to see your business listed on this page?

 If your business provides an interesting product or service to pilots, flight crews, aircraft, or users of the Smith's International Airport, you should consider listing it here.  To start the listing process, click on the button below
 
Add a business
 

Other Pages about Smith's International Airport

Update a link
 
Copyright © AirNav, LLC. All rights reserved. Privacy Policy  Contact